Location: Casilda
(33.0440°S, 61.1680°W)
Time: 20:38:39
(UTC-03:00)

ISS - Pass Details

Date: 12 April 2026
Orbit: 416 x 425 km, 51.6° (Epoch: 18 April)

Event Time Altitude Azimuth Distance (km) Brightness Sun altitude
Rises 19:41:50 0° 299° (WNW) 2,371 1.3 -12.5°
Reaches altitude 10° 19:44:01 10° 290° (WNW) 1,511 0.3 -12.9°
Maximum altitude 19:47:13 39° 220° (SW) 658 -2.5 -13.6°
Enters shadow 19:50:17 11° 150° (SSE) 1,454 -1.3 -14.3°
